Location: *
(38.0794°S, 156.4766°W)
Time: 14:31:51
(UTC+00:00)

Daily predictions for brighter satellites

Satellite Brightness Start Highest point End
(mag) Time Altitude Azimuth Time Altitude Azimuth Time Altitude Azimuth
USA 59 Rocket 4.0 12:16:57 14° SW 12:20:54 18° SSW 12:27:17 10° SSE
H-2A R/B 4.2 13:08:27 20° SSE 13:08:27 20° SSE 13:10:15 10° S
SL-12 R/B(2) 4.3 12:59:09 10° SSW 13:08:28 60° E 13:14:49 10° NE
Cosmos 2263 Rocket 3.5 13:32:56 10° S 13:38:09 38° ESE 13:43:18 10° NE
Cosmos 1980 Rocket 2.9 13:41:36 48° SSE 13:41:36 48° SSE 13:45:41 10° SSE
USA 267 3.4 13:37:26 10° SE 13:43:59 62° NE 13:44:33 59° NNE
Cosmos 1821 Rocket 4.0 13:47:08 81° E 13:47:08 81° E 13:53:28 10° S
Cosmos 1238 Rocket 4.4 13:50:46 10° SSE 13:54:43 38° E 13:59:13 10° NNE
SL-16 R/B 3.0 13:54:12 10° SSE 14:00:19 56° ENE 14:04:06 24° N
Cosmos 1933 4.4 14:04:22 10° S 14:08:10 42° E 14:08:32 41° E
CZ-2C R/B 4.4 14:07:38 10° S 14:09:41 19° SSW 14:09:41 19° SSW
USA 59 Rocket 4.1 14:09:51 10° SSW 14:15:48 16° SSE 14:21:16 10° SE
OAO 2 Rocket 3.5 14:18:35 63° N 14:18:35 63° N 14:23:47 10° ENE
Cosmos 304 Rocket 4.3 14:17:35 10° SSW 14:23:56 44° N 14:27:14 10° NNE
Cosmos 1697 Rocket 4.4 14:24:53 18° SW 14:24:53 18° SW 14:27:29 10° S
GP-B 4.4 14:23:45 10° SSE 14:27:59 40° E 14:32:09 10° NNE
ARGOS 3.1 14:23:23 10° NNE 14:28:48 88° WNW 14:34:20 10° SSW
Cosmos 2360 Rocket 4.4 14:24:55 10° NNE 14:29:17 23° E 14:33:39 10° SE
Cosmos 521 Rocket 4.4 14:27:48 50° WNW 14:29:22 67° WSW 14:35:42 10° SSE
OAO 3 Copernicus 4.4 14:29:56 56° NNW 14:30:14 57° N 14:35:14 10° ENE
SL-08 RB Rocket 4.0 14:26:43 10° NNE 14:31:09 66° ESE 14:35:42 10° S
ATLAS 2AS CENTAUR R/B 2.6 14:29:27 43° NW 14:31:50 72° SW 14:38:54 10° SSE
Cosmos 1862 3.6 14:33:17 54° S 14:33:17 54° S 14:36:25 10° S
Meteor 2-3 Rocket 3.7 14:32:50 37° NNW 14:35:07 68° W 14:40:52 10° S
Genesis I 3.4 14:36:10 54° NE 14:36:20 55° ENE 14:39:44 10° SE
ARIANE 5 R/B 3.2 14:37:28 10° NNE 14:42:20 54° ESE 14:47:16 10° S
Cosmos 2322 Rocket 3.5 14:37:31 10° N 14:42:41 39° ENE 14:47:54 10° SE
Cosmos 2219 3.3 14:37:17 10° SSW 14:42:42 48° WNW 14:48:04 10° N
Cosmos 1174 4.0 14:42:09 49° NW 14:43:21 84° WSW 14:48:37 10° SSE
Cosmos 1486 Rocket 3.9 14:38:36 10° SSW 14:43:55 72° WNW 14:49:12 10° N
H-2A R/B 4.2 14:48:58 11° SW 14:48:58 11° SW 14:49:15 10° SW
Cosmos-2242 2.9 14:41:33 10° SSW 14:45:44 57° W 14:46:29 48° NW
ATLAS 3B R/B 4.3 14:40:38 10° SSW 14:46:00 29° SE 14:51:25 10° ENE
Cosmos 2082 3.6 14:47:06 10° SSW 14:52:40 60° WNW 14:58:12 10° N
USA 305 2.7 14:54:27 39° NNW 14:55:41 71° NE 14:59:39 10° SE
Cosmos 1844 Rocket 4.2 14:56:20 10° S 15:01:31 37° ESE 15:06:38 10° NE
USA 307 4.3 14:59:45 12° N 15:02:11 27° NE 15:05:22 10° ESE
Cosmos 1602 3.4 14:59:19 10° N 15:02:55 87° W 15:06:36 10° S
NOSS 3-1 (C) 3.0 14:56:58 10° SW 15:03:01 69° WNW 15:07:57 10° NNE
FengYun 1-2 T 4.3 14:59:53 10° N 15:05:17 52° W 15:10:47 10° SSW
SL-16 R/B 2.1 15:01:55 10° NNW 15:07:31 76° WSW 15:13:15 10° SSE
Cosmos 2278 3.8 15:04:40 16° NW 15:09:09 60° WSW 15:14:50 10° SSE
Iridium 921 4.2 15:05:54 10° N 15:09:12 90° SW 15:12:34 10° S
Cosmos 1934 Rocket 4.1 15:03:06 10° NNW 15:09:18 55° W 15:15:32 10° S
ATLAS CENTAUR R/B 4.0 15:01:17 10° SW 15:09:37 50° SE 15:15:10 10° ENE
Cosmos 1602 Rocket 4.1 15:08:43 24° NW 15:10:39 37° WSW 15:14:44 10° S
Cosmos 2333 Rocket 3.1 15:05:45 10° N 15:11:12 52° ENE 15:16:43 10° SSE
Cosmos 2151 3.3 15:08:24 10° N 15:12:35 69° E 15:16:53 10° SSE
Okean 1-7 Rocket 4.1 15:10:24 22° NW 15:12:37 36° WSW 15:16:46 10° S
CZ-2D R/B 4.1 15:09:34 10° NNE 15:13:00 49° ESE 15:16:30 10° S
CZ-2D R/B 4.1 15:11:12 10° NNE 15:15:04 55° ESE 15:18:58 10° S
Cosmos 1666 4.4 15:20:15 14° SW 15:20:15 14° SW 15:21:17 10° SSW
Cosmos 2123 Rocket 4.1 15:12:53 10° SSW 15:19:01 53° W 15:25:09 10° NNW
UNK 4.4 15:16:43 10° S 15:20:53 33° WSW 15:24:26 13° NW
SJ-12 3.8 15:17:51 10° NNE 15:21:49 88° W 15:25:51 10° SSW
Cosmos 2263 Rocket 3.0 15:17:11 10° SW 15:21:49 27° WNW 15:26:26 10° NNW
Cosmos 1812 Rocket 4.0 15:18:07 10° SSW 15:22:22 41° W 15:26:34 10° NNW
BREEZE-M DEB (TANK) 4.5 15:19:07 13° SW 15:22:34 41° SSE 15:33:05 10° E
Cosmos 2227 4.2 15:17:46 10° SSW 15:23:37 88° WNW 15:29:23 10° NNE
Cosmos 1980 Rocket 4.0 15:23:21 13° WSW 15:24:45 14° SW 15:27:34 10° SSW
USA 267 3.9 15:20:39 10° SE 15:26:44 41° SSW 15:31:55 14° W
SL-19 R/B 4.4 15:22:36 10° NNE 15:28:14 87° ESE 15:34:18 10° SSW
ISS -1.4 15:28:25 10° N 15:31:11 23° NE 15:33:59 10° ESE
Cosmos 2221 2.5 15:32:07 10° SSW 15:36:23 60° W 15:40:37 10° N
USA 281 3.6 15:32:17 10° S 15:38:27 42° WSW 15:44:33 10° NW
Lacrosse 4 Rocket 4.4 15:36:57 10° SSE 15:38:37 12° SE 15:40:16 10° ESE
Cosmos 1953 Rocket 3.6 15:35:24 10° NNW 15:39:52 69° W 15:44:24 10° S
Meteor 2-6 Rocket 4.3 15:35:24 10° SSW 15:41:25 73° W 15:47:21 10° N
SL-16 R/B 3.7 15:38:44 10° SSW 15:43:24 23° WSW 15:48:04 10° WNW
BREEZE M DEB (TANK) 4.3 15:46:20 10° SSW 15:48:22 17° SSE 15:51:46 10° ESE
H-2A R/B 3.9 15:47:18 10° NW 15:49:00 14° W 15:50:44 10° WSW
Cosmos 1076 Rocket 3.5 15:51:30 10° NNW 15:55:49 64° W 16:00:13 10° S
Cosmos 540 Rocket 3.7 15:51:02 10° NW 15:56:02 49° WSW 16:01:05 10° S
USA 234 3.5 15:51:35 10° NE 15:58:08 80° SE 16:04:45 10° SW
Cosmos 1340 Rocket 4.3 15:55:53 10° SW 15:58:29 17° W 16:01:04 10° NW
USA 81 4.2 15:53:38 10° S 15:59:00 85° E 16:04:17 10° N
SeaSat 1 4.1 15:54:50 10° SE 15:59:28 39° ENE 16:04:03 10° N
Cosmos 1844 3.8 15:55:49 10° SSW 16:01:41 80° WNW 16:07:27 10° NNE
Cosmos 292 Rocket 3.8 15:57:13 10° SSW 16:02:02 61° WNW 16:06:47 10° N
